Showing default

ZHUHAI-1 01, 42761

Orbit data source: Space-Track

ZHUHAI-1 01, 42761 is a payload satellite owned by Zhuhai Orbita (CN) in LEO that was launched on Thu, 15 Jun 2017 UTC via a CHANG ZHENG 4B launch vehicle from the Jiuquan Satellite Launch Center, China (JSC). Payload-class satellites include a variety of spacecraft equipped with specific instruments for various scientific and technological missions. These include communications satellites like Starlink; space stations such as the ISS; scientific satellites like the Hubble; Earth observation satellites from companies like Planet Labs, Umbra, and HawkEye 360; GPS; miniature CubeSats for education and research; and military/defense satellites.

Loading next visibility...
Identifier
42761, 2017-034D
Orbit
LEO
Country
Flag of CNCN / PRC
Related business
Manufacturer
Zhuhai Orbita
Mission
Operational Commercial Imaging
Bus & Motor
OVS-1, Unknown motor
Mass
50 kg wet, 50 kg dry
Launch date (UTC)
2017-06-15 (8 years ago)
Launch vehicle
CHANG ZHENG 4B
Launch site
Jiuquan Satellite Launch Center, China (JSC)
Object type
Payload
Rocket body
Debris
Shape & HBR
Box, 0.5 m
Radar Cross Section
0.375 m², Medium (>0.1 m² and < 1m²)

Expand to show TLE details & history
Last TLE update: 12 hours ago

TLE from 12 hours ago
0 ZHUHAI-1 01
1 42761U 17034D   25243.15397887  .00218408  00000-0  10913-2 0  9998
2 42761  43.0051 181.2832 0022121 165.4043 194.7471 15.80076010455602
Epoch: 2025-08-31T03:41Z
TLE epoch observation values (Epoch: 2025-08-31T03:41:43.774Z)
Latitude
-0.00002°
Longitude
146.27279°
Altitude
344.347 km
Speed
7.696 km/s
True Right ascension
12h 05m 07s
True Declination
0° 00' 00"
Sunlit
Object was in daylight at epoch
Visualization orbit readout
Latitude
Unknown
Longitude
Unknown
Altitude
Unknown
Speed
Unknown
Apparent Right ascension
Unknown
Apparent Declination
Unknown
Sunlit
N/A
Visualization observer readout
Local Sidereal Time
07:43:08
Azimuth
Unknown
Elevation
Unknown
Doppler factor
Unknown
Orbital elements
Apogee altitude
347.058 km
Perigee altitude
317.37 km
Semi-major axis
6,710.351 km
Eccentricity
0.00221
Inclination
43.0051°
RAAN
181.2832°
Arg. of periapsis
165.4043°
True anomaly
194.68275°
Mean anomaly
194.7471°
Eccentric anomaly
194.71491°
Mean motion
3.94844 °/min
Orbital period
91.18 mins
BSTAR
0.0010913
Loading maneuver chart data...
Computing Atmospheric mass density...
Loading historical data...
Loading historical data...
Loading historical data...
Loading historical data...
Loading historical data...
Loading historical data...
Loading historical data...

Documentation

Showing up to 5 results
|